Terug naar catalogus

STARLINK-30135

ActiefCommunicatieVLEO
NORAD 56842·PAYLOAD·🇺🇸 United States

Gelanceerd Jun 4, 2023 vanaf Cape Canaveral Space Force Station

Loading…

Volgende Passages (komende 24 uur)

TLE

VersSource: CelesTrak SupGP

Epoch: Sep 15, 2026, 02:25 UTC

1 56842C 23079V   26258.10118056  .00052464  00000+0  18994-2 0  2582
2 56842  42.9998 117.4385 0000997 279.8319  99.3435 15.27567460    18

Volg STARLINK-30135 in realtime met AllMySat

Download on the App Store